星链-4598 (STARLINK-4598 )

导读

STARLINK-4598是美国太空探索技术公司(SpaceX)星链(Starlink)卫星互联网计划中的一颗卫星,于2022年8月28日发射升空。星链项目旨在构建全球卫星互联网星座,为全球偏远地区、海洋等区域提供高速互联网接入服务,该卫星是星链星座部署过程中的一员,助力项目组网覆盖。

Basic Information
目录编号:
53630
目录名称:
STARLINK-4598
国际标识:
2022-104AU
轨道中心:
EARTH
卫星名称:
星链-4598
卫星全名:
星链-4598 (STARLINK-4598 )
卫星状态:
在轨 (已飞行1468 天)
发射日期:
2022-08-28 UTC
国别 :
美国 (US)
星等 :
--
Orbit Information
数据来源 国际轨道数据 AOE轨道数据
星历时间 2026-09-04T00:16:08+0800
12小时前
查看轨道信息
2026-09-03T23:00:00+0800
13小时前
查看轨道信息
半长轴 6848.892km 6848.861km
偏心率 0.0001144 0.0001298
轨道倾角 53.160° 53.160°
近地点辐角 85.960° 94.231°
升交点赤经 136.259° 136.506°
平近点角 274.153° 334.237°
近地点 469.971km 469.835km
远地点 471.539km 471.613km
周期 94.013分钟 94.013分钟
每日圈数 15.316951 15.317056
Detailed Information
固有亮度:
5
最大亮度:
2.5
卫星平台:
Starlink v1.5
覆盖范围:
全球
运营商:
太空探索技术公司
运营商所在国:
美国
制造商(研发单位):
太空探索技术公司
制造商所在国:
美国
使用方式:
暂无
Satellite Introduction
星链(Starlink)计划是由太空探索技术公司(SpaceX)提出的一个巨型低轨卫星互联网星座项目,计划在2019年至2024年间在太空搭建由约1.2万颗卫星组成的“星链”网络,其中1584颗将部署在地球上空550千米处的近地轨道,并从2020年开始工作。该卫星仍在工作。
2D Orbit Map
3D Orbit Map
Orbit Altitude Analysis Chart
Orbit Inclination Analysis Chart
Orbit Comprehensive Analysis Chart
View Comprehensive Chart
Conjunction Data List
Event ID Objects TCA Miss Dist (km) Collision Risk Probability Collision Risk Index (CRI) Action
CDM_260901-184105-363006-868521
2026-09-01T
18:41:57+0000
2.994 km
极远距离
8.497041E-7 极低风险 0.34